TimeCST,TemperatureF,Dew PointF,Humidity,Sea Level PressureIn,VisibilityMPH,Wind Direction,Wind SpeedMPH,Gust SpeedMPH,PrecipitationIn,Events,Conditions,WindDirDegrees,DateUTC
12:15 AM,15.8,6.8,68,29.97,10.0,SE,11.5,-,N/A,,Clear,130,2012-12-27 06:15:00
12:35 AM,17.6,6.8,63,29.96,10.0,SE,12.7,-,N/A,,Clear,130,2012-12-27 06:35:00
12:55 AM,17.6,6.8,63,29.95,10.0,SE,12.7,-,N/A,,Clear,140,2012-12-27 06:55:00
1:15 AM,17.6,8.6,68,29.94,10.0,SE,16.1,-,N/A,,Clear,140,2012-12-27 07:15:00
1:35 AM,19.4,8.6,63,29.93,10.0,SE,18.4,-,N/A,,Partly Cloudy,140,2012-12-27 07:35:00
1:55 AM,19.4,8.6,63,29.92,10.0,SE,16.1,-,N/A,,Partly Cloudy,140,2012-12-27 07:55:00
2:15 AM,19.4,8.6,63,29.92,10.0,SSE,16.1,-,N/A,,Scattered Clouds,150,2012-12-27 08:15:00
2:35 AM,21.2,8.6,58,29.91,10.0,SSE,18.4,23.0,N/A,,Mostly Cloudy,150,2012-12-27 08:35:00
2:55 AM,21.2,8.6,58,29.88,10.0,SSE,20.7,26.5,N/A,,Mostly Cloudy,150,2012-12-27 08:55:00
3:15 AM,21.2,8.6,58,29.90,10.0,SSE,16.1,-,N/A,,Scattered Clouds,150,2012-12-27 09:15:00
3:55 AM,19.4,8.6,63,29.86,10.0,SE,18.4,21.9,N/A,,Clear,140,2012-12-27 09:55:00
4:15 AM,19.4,10.4,68,29.88,10.0,SE,13.8,-,N/A,,Clear,140,2012-12-27 10:15:00
4:35 AM,21.2,10.4,63,29.87,10.0,SSE,16.1,20.7,N/A,,Clear,150,2012-12-27 10:35:00
4:55 AM,21.2,10.4,63,29.85,10.0,SSE,18.4,-,N/A,,Clear,150,2012-12-27 10:55:00
5:15 AM,19.4,10.4,68,29.87,10.0,SSE,11.5,-,N/A,,Clear,150,2012-12-27 11:15:00
5:35 AM,19.4,12.2,74,29.86,10.0,SE,16.1,-,N/A,,Clear,140,2012-12-27 11:35:00
5:55 AM,19.4,10.4,68,29.84,10.0,SE,17.3,-,N/A,,Clear,140,2012-12-27 11:55:00
6:15 AM,19.4,10.4,68,29.85,10.0,SE,15.0,-,N/A,,Clear,130,2012-12-27 12:15:00
6:35 AM,19.4,10.4,68,29.85,10.0,SE,13.8,-,N/A,,Clear,140,2012-12-27 12:35:00
6:55 AM,17.6,10.4,73,29.84,10.0,SE,17.3,-,N/A,,Clear,130,2012-12-27 12:55:00
7:15 AM,17.6,10.4,73,29.84,10.0,SE,17.3,-,N/A,,Clear,140,2012-12-27 13:15:00
7:35 AM,17.6,10.4,73,29.85,10.0,SE,15.0,-,N/A,,Partly Cloudy,140,2012-12-27 13:35:00
7:55 AM,17.6,10.4,73,29.85,10.0,SE,15.0,-,N/A,,Scattered Clouds,140,2012-12-27 13:55:00
8:15 AM,17.6,10.4,73,29.85,10.0,SE,12.7,-,N/A,,Mostly Cloudy,130,2012-12-27 14:15:00
8:35 AM,17.6,10.4,73,29.85,10.0,SE,13.8,-,N/A,,Mostly Cloudy,140,2012-12-27 14:35:00
8:55 AM,19.4,12.2,74,29.85,10.0,SE,17.3,23.0,N/A,,Partly Cloudy,140,2012-12-27 14:55:00
9:15 AM,19.4,14.0,80,29.85,10.0,SSE,16.1,-,N/A,,Mostly Cloudy,150,2012-12-27 15:15:00
9:35 AM,21.2,14.0,74,29.86,10.0,SSE,19.6,-,N/A,,Overcast,150,2012-12-27 15:35:00
9:55 AM,21.2,15.8,80,29.86,10.0,SSE,19.6,24.2,N/A,,Overcast,160,2012-12-27 15:55:00
10:35 AM,23.0,15.8,74,29.86,10.0,SSE,15.0,-,N/A,,Overcast,160,2012-12-27 16:35:00
10:55 AM,23.0,15.8,74,29.86,10.0,SSE,12.7,-,N/A,,Overcast,160,2012-12-27 16:55:00
11:15 AM,23.0,15.8,74,29.86,9.0,South,13.8,-,N/A,,Overcast,170,2012-12-27 17:15:00
11:35 AM,24.8,15.8,69,29.86,9.0,SSE,10.4,-,N/A,,Overcast,160,2012-12-27 17:35:00
11:55 AM,24.8,15.8,69,29.85,10.0,South,9.2,-,N/A,,Overcast,170,2012-12-27 17:55:00
12:15 PM,24.8,17.6,74,29.85,10.0,SSW,9.2,-,N/A,,Overcast,210,2012-12-27 18:15:00
12:35 PM,24.8,17.6,74,29.84,10.0,SSW,8.1,-,N/A,,Overcast,200,2012-12-27 18:35:00
12:55 PM,24.8,17.6,74,29.82,10.0,SSW,6.9,-,N/A,,Overcast,200,2012-12-27 18:55:00
1:15 PM,24.8,15.8,69,29.82,10.0,SW,5.8,-,N/A,,Overcast,230,2012-12-27 19:15:00
1:35 PM,24.8,17.6,74,29.82,10.0,West,4.6,-,N/A,,Overcast,260,2012-12-27 19:35:00
1:55 PM,24.8,15.8,69,29.82,10.0,Calm,Calm,-,N/A,,Overcast,0,2012-12-27 19:55:00
2:15 PM,24.8,17.6,74,29.82,10.0,WNW,4.6,-,N/A,,Overcast,290,2012-12-27 20:15:00
2:35 PM,24.8,17.6,74,29.82,10.0,Calm,Calm,-,N/A,,Overcast,0,2012-12-27 20:35:00
2:55 PM,24.8,15.8,69,29.82,10.0,Calm,Calm,-,N/A,,Overcast,0,2012-12-27 20:55:00
3:15 PM,24.8,15.8,69,29.83,10.0,Calm,Calm,-,N/A,,Overcast,0,2012-12-27 21:15:00
3:35 PM,24.8,15.8,69,29.84,10.0,Calm,Calm,-,N/A,,Overcast,0,2012-12-27 21:35:00
3:55 PM,24.8,15.8,69,29.84,10.0,Calm,Calm,-,N/A,,Overcast,0,2012-12-27 21:55:00
4:15 PM,24.8,15.8,69,29.85,10.0,NNW,3.5,-,N/A,,Overcast,330,2012-12-27 22:15:00
4:35 PM,24.8,15.8,69,29.86,10.0,Calm,Calm,-,N/A,,Overcast,0,2012-12-27 22:35:00
4:55 PM,24.8,15.8,69,29.86,10.0,NNW,5.8,-,N/A,,Overcast,330,2012-12-27 22:55:00
5:15 PM,24.8,15.8,69,29.87,10.0,North,5.8,-,N/A,,Overcast,350,2012-12-27 23:15:00
5:35 PM,24.8,15.8,69,29.87,10.0,NNW,6.9,-,N/A,,Overcast,330,2012-12-27 23:35:00
5:55 PM,24.8,15.8,69,29.88,10.0,NNW,6.9,-,N/A,,Overcast,340,2012-12-27 23:55:00
6:15 PM,24.8,17.6,74,29.90,10.0,North,8.1,-,N/A,,Overcast,350,2012-12-28 00:15:00
6:35 PM,24.8,15.8,69,29.90,10.0,NNW,8.1,-,N/A,,Overcast,330,2012-12-28 00:35:00
6:55 PM,24.8,15.8,69,29.90,10.0,North,8.1,-,N/A,,Overcast,360,2012-12-28 00:55:00
7:15 PM,24.8,15.8,69,29.91,10.0,NNW,8.1,-,N/A,,Overcast,340,2012-12-28 01:15:00
7:35 PM,24.8,15.8,69,29.91,10.0,North,8.1,-,N/A,,Overcast,350,2012-12-28 01:35:00
7:55 PM,24.8,15.8,69,29.92,10.0,North,10.4,-,N/A,,Overcast,350,2012-12-28 01:55:00
8:15 PM,24.8,15.8,69,29.92,10.0,North,11.5,-,N/A,,Overcast,350,2012-12-28 02:15:00
8:35 PM,23.0,15.8,74,29.92,10.0,North,8.1,-,N/A,,Overcast,360,2012-12-28 02:35:00
8:55 PM,24.8,15.8,69,29.92,10.0,North,8.1,-,N/A,,Overcast,360,2012-12-28 02:55:00
9:15 PM,24.8,15.8,69,29.94,10.0,North,6.9,-,N/A,,Overcast,350,2012-12-28 03:15:00
9:35 PM,24.8,15.8,69,29.94,10.0,NNW,8.1,-,N/A,,Overcast,340,2012-12-28 03:35:00
9:55 PM,24.8,15.8,69,29.94,10.0,NNW,9.2,-,N/A,,Overcast,340,2012-12-28 03:55:00
10:15 PM,23.0,15.8,74,29.94,10.0,NNW,9.2,-,N/A,,Overcast,340,2012-12-28 04:15:00
10:35 PM,23.0,15.8,74,29.95,10.0,NNW,8.1,-,N/A,,Overcast,340,2012-12-28 04:35:00
10:55 PM,23.0,15.8,74,29.96,10.0,North,9.2,-,N/A,,Overcast,350,2012-12-28 04:55:00
11:35 PM,23.0,15.8,74,29.97,10.0,NNW,5.8,-,N/A,,Overcast,340,2012-12-28 05:35:00
11:55 PM,23.0,15.8,74,29.97,10.0,NNW,11.5,-,N/A,,Overcast,330,2012-12-28 05:55:00